Location: Dehesa de la Cepeda
(40.6574°N, 4.3013°W)
Time: 08:24:11
(UTC+00:00)

Courier 1B Rocket - Pass Details

Date: 05 August 2021
Orbit: 920 x 1202 km, 28.3° (Epoch: 26 September)

Event Time Altitude Azimuth Distance (km) Brightness Sun altitude
Exits shadow 02:56:09 25° 166° (SSE) 1,865 6.1 -22.4°
Drops below altitude 10° 03:00:00 10° 131° (SE) 2,672 7.3 -21.9°
Sets 03:02:58 0° 119° (ESE) 3,587 8.1 -21.5°
